Terminal Aerodrome Forecast
Issued by NWS

Home | Current Version | Previous Version | Text Only | Print | Product List | Glossary On
Versions: 1 2 3 4 5 6 7 8 9 10 11 12 13 14 15 16 17 18 19 20
000
FTUS43 KDLH 200900 AAD
TAFBRD
TAF AMD
KBRD 200930Z 2010/2106 VRB03KT P6SM SCT002
      TEMPO 2010/2012 5SM BR
     FM201500 29007KT P6SM SCT220
     FM210100 26005KT P6SM SKC=

USA.gov is the U.S. government's official web portal to all federal, state and local government web resources and services.